Weather reports worldwide

Advertisment
Virac, Philippines (98446): temperature & dewpoint: 12.09.2019 05:00:00 - 18.09.2019 05:00:00 (PHT)Virac, Philippines (98446): wind speed: 12.09.2019 05:00:00 - 18.09.2019 05:00:00 (PHT)Virac, Philippines (98446): wind direction: 12.09.2019 05:00:00 - 18.09.2019 05:00:00 (PHT)Virac, Philippines (98446): reduced air pressure: 12.09.2019 05:00:00 - 18.09.2019 05:00:00 (PHT)Virac, Philippines (98446): visibility: 12.09.2019 05:00:00 - 18.09.2019 05:00:00 (PHT)
Date & Time tt [°C] td [°C] ff [km/h] ff [kn] dd ppp [hPa] vv [km]
18.09.2019 05:00:00 26,4 24,8 7 4 SW 1007,8 9
18.09.2019 04:00:00 - - - - - - -
18.09.2019 03:00:00 - - - - - - -
18.09.2019 02:00:00 26,0 24,9 7 4 SW 1007,8 12
18.09.2019 01:00:00 - - - - - - -
18.09.2019 00:00:00 - - - - - - -
17.09.2019 23:00:00 26,2 24,9 7 4 NW 1009,8 12
17.09.2019 22:00:00 - - - - - - -
17.09.2019 21:00:00 - - - - - - -
17.09.2019 20:00:00 27,2 25,6 7 4 S 1008,6 12
17.09.2019 19:00:00 - - - - - - -
17.09.2019 18:00:00 - - - - - - -
17.09.2019 17:00:00 30,0 26,4 7 4 SSW 1006,9 14
17.09.2019 16:00:00 - - - - - - -
17.09.2019 15:00:00 - - - - - - -
17.09.2019 14:00:00 31,0 26,9 11 6 SSW 1006,7 16
17.09.2019 13:00:00 - - - - - - -
17.09.2019 12:00:00 - - - - - - -
17.09.2019 11:00:00 30,8 27,0 7 4 SSW 1007,8 16
17.09.2019 10:00:00 - - - - - - -
17.09.2019 09:00:00 - - - - - - -
17.09.2019 08:00:00 28,2 25,3 7 4 SSW 1007,8 16
17.09.2019 07:00:00 - - - - - - -
17.09.2019 06:00:00 - - - - - - -
17.09.2019 05:00:00 27,2 24,8 7 4 NW 1006,4 9
17.09.2019 04:00:00 - - - - - - -
17.09.2019 03:00:00 - - - - - - -
17.09.2019 02:00:00 27,4 25,0 7 4 W 1006,4 10
17.09.2019 01:00:00 - - - - - - -
17.09.2019 00:00:00 - - - - - - -
16.09.2019 23:00:00 28,4 24,4 22 12 W 1005,6 10
16.09.2019 22:00:00 - - - - - - -
16.09.2019 21:00:00 - - - - - - -
16.09.2019 20:00:00 28,0 25,4 7 4 NW 1006,6 15
16.09.2019 19:00:00 - - - - - - -
16.09.2019 18:00:00 - - - - - - -
16.09.2019 17:00:00 29,6 25,4 7 4 SW 1005,8 20
16.09.2019 16:00:00 - - - - - - -
16.09.2019 15:00:00 - - - - - - -
16.09.2019 14:00:00 30,0 26,1 7 4 SW 1005,4 20
16.09.2019 13:00:00 - - - - - - -
16.09.2019 12:00:00 - - - - - - -
16.09.2019 11:00:00 29,6 24,6 14 8 SW 1007,8 16
16.09.2019 10:00:00 - - - - - - -
16.09.2019 09:00:00 - - - - - - -
16.09.2019 08:00:00 28,0 24,8 7 4 SW 1008,0 18
16.09.2019 07:00:00 - - - - - - -
16.09.2019 06:00:00 - - - - - - -
16.09.2019 05:00:00 27,4 24,2 4 2 NW 1007,1 10
16.09.2019 04:00:00 - - - - - - -
16.09.2019 03:00:00 - - - - - - -
16.09.2019 02:00:00 28,0 24,6 7 4 SW 1007,6 10
16.09.2019 01:00:00 - - - - - - -
16.09.2019 00:00:00 - - - - - - -
15.09.2019 23:00:00 28,0 24,0 14 8 W 1008,4 10
15.09.2019 22:00:00 - - - - - - -
15.09.2019 21:00:00 - - - - - - -
15.09.2019 20:00:00 28,2 24,8 7 4 W 1007,8 15
15.09.2019 19:00:00 - - - - - - -
15.09.2019 18:00:00 - - - - - - -
15.09.2019 17:00:00 29,4 25,2 7 4 W 1006,6 20
15.09.2019 16:00:00 - - - - - - -
15.09.2019 15:00:00 - - - - - - -
15.09.2019 14:00:00 31,4 26,2 4 2 NW 1006,9 25
15.09.2019 13:00:00 - - - - - - -
15.09.2019 12:00:00 - - - - - - -
15.09.2019 11:00:00 30,0 26,4 4 2 W 1008,9 20
15.09.2019 10:00:00 - - - - - - -
15.09.2019 09:00:00 - - - - - - -
15.09.2019 08:00:00 27,8 25,6 7 4 W 1009,9 18
15.09.2019 07:00:00 - - - - - - -
15.09.2019 06:00:00 - - - - - - -
15.09.2019 05:00:00 26,4 25,1 4 2 NW 1007,9 14
15.09.2019 04:00:00 - - - - - - -
15.09.2019 03:00:00 - - - - - - -
15.09.2019 02:00:00 26,8 24,7 11 6 W 1008,6 14
15.09.2019 01:00:00 - - - - - - -
15.09.2019 00:00:00 - - - - - - -
14.09.2019 23:00:00 25,6 24,8 4 2 NW 1009,0 14
14.09.2019 22:00:00 - - - - - - -
14.09.2019 21:00:00 - - - - - - -
14.09.2019 20:00:00 25,8 24,7 4 2 W 1009,0 14
14.09.2019 19:00:00 - - - - - - -
14.09.2019 18:00:00 - - - - - - -
14.09.2019 17:00:00 26,4 25,1 4 2 NW 1007,5 16
14.09.2019 16:00:00 - - - - - - -
14.09.2019 15:00:00 - - - - - - -
14.09.2019 14:00:00 27,0 26,0 7 4 NW 1007,5 18
14.09.2019 13:00:00 - - - - - - -
14.09.2019 12:00:00 - - - - - - -
14.09.2019 11:00:00 27,6 26,3 11 6 NW 1008,5 18
14.09.2019 10:00:00 - - - - - - -
14.09.2019 09:00:00 - - - - - - -
14.09.2019 08:00:00 27,2 26,2 7 4 NW 1007,9 18
14.09.2019 07:00:00 - - - - - - -
14.09.2019 06:00:00 - - - - - - -
14.09.2019 05:00:00 25,4 24,3 7 4 NW 1007,2 12
14.09.2019 04:00:00 - - - - - - -
14.09.2019 03:00:00 - - - - - - -
14.09.2019 02:00:00 25,8 25,0 7 4 WNW 1006,9 12
14.09.2019 01:00:00 - - - - - - -
14.09.2019 00:00:00 - - - - - - -
13.09.2019 23:00:00 26,4 25,1 7 4 W 1008,0 15
13.09.2019 22:00:00 - - - - - - -
13.09.2019 21:00:00 - - - - - - -
13.09.2019 20:00:00 27,6 25,8 7 4 NNW 1006,9 15
13.09.2019 19:00:00 - - - - - - -
13.09.2019 18:00:00 - - - - - - -
13.09.2019 17:00:00 29,2 26,4 7 4 W 1004,8 20
13.09.2019 16:00:00 - - - - - - -
13.09.2019 15:00:00 - - - - - - -
13.09.2019 14:00:00 31,8 27,2 11 6 SSW 1004,4 20
13.09.2019 13:00:00 - - - - - - -
13.09.2019 12:00:00 - - - - - - -
13.09.2019 11:00:00 31,6 27,5 7 4 SW 1005,6 20
13.09.2019 10:00:00 - - - - - - -
13.09.2019 09:00:00 - - - - - - -
13.09.2019 08:00:00 27,0 26,0 7 4 WNW 1005,3 20
13.09.2019 07:00:00 - - - - - - -
13.09.2019 06:00:00 - - - - - - -
13.09.2019 05:00:00 25,6 24,8 4 2 NW 1004,3 14
13.09.2019 04:00:00 - - - - - - -
13.09.2019 03:00:00 - - - - - - -
13.09.2019 02:00:00 25,6 24,8 4 2 NNW 1004,1 16
13.09.2019 01:00:00 - - - - - - -
13.09.2019 00:00:00 - - - - - - -
12.09.2019 23:00:00 26,2 25,2 7 4 W 1005,6 16
12.09.2019 22:00:00 - - - - - - -
12.09.2019 21:00:00 - - - - - - -
12.09.2019 20:00:00 27,2 25,1 7 4 NW 1004,7 16
12.09.2019 19:00:00 - - - - - - -
12.09.2019 18:00:00 - - - - - - -
12.09.2019 17:00:00 28,4 25,8 11 6 W 1003,0 18
12.09.2019 16:00:00 - - - - - - -
12.09.2019 15:00:00 - - - - - - -
12.09.2019 14:00:00 28,4 26,2 7 4 SW 1002,4 20
12.09.2019 13:00:00 - - - - - - -
12.09.2019 12:00:00 - - - - - - -
12.09.2019 11:00:00 28,8 25,4 11 6 W 1005,5 20
12.09.2019 10:00:00 - - - - - - -
12.09.2019 09:00:00 - - - - - - -
12.09.2019 08:00:00 26,0 23,8 11 6 NW 1005,6 20
12.09.2019 07:00:00 - - - - - - -
12.09.2019 06:00:00 - - - - - - -
12.09.2019 05:00:00 24,3 22,6 7 4 WSW 1004,8 10

tt = temperature
td = dewpoint
ff = wind speed
dd = wind direction
ppp = reduced air pressure
vv = visibility

Next stations